Location: Basse Occidentale du Courleau
(48.3833°N, 4.8333°W)
Time: 09:35:26
(UTC+00:00)

Cosmos 2221 - Pass Details

Date: 05 July 2020
Orbit: 592 x 616 km, 82.5° (Epoch: 08 August)

Event Time Altitude Azimuth Distance (km) Brightness Sun altitude
Rises 22:30:09 0° 349° (N) 2,898 7.6 -14.5°
Reaches altitude 10° 22:32:23 10° 349° (N) 1,986 6.4 -14.7°
Maximum altitude 22:36:47 82° 263° (W) 624 2.5 -15.0°
Enters shadow 22:39:20 25° 177° (S) 1,256 3.6 -15.2°
